{"data":{"norad_id":60731,"epoch":"2026-05-25T02:54:10.144800Z","epoch_age_seconds":54673,"freshness":"FRESH","line1":"1 60731U 24152M   26145.12095075  .00000044  00000+0  52184-5 0  9990","line2":"2 60731  53.1597  99.1698 0000969  83.6861 276.4268 15.69706761100854","mean_motion":15.69706761,"eccentricity":9.69e-5,"inclination_deg":53.1597,"raan_deg":99.1698,"arg_perigee_deg":83.6861,"mean_anomaly_deg":276.4268,"bstar":5.2184e-6,"rev_number":10085,"period_min":91.73687951007,"perigee_km":359.08311931833,"apogee_km":360.38891910946,"semimajor_km":6737.8730192139,"source":"CELESTRAK","updated_at":"2026-05-25T13:38:19.309828Z"}}